Hourly Weather Holynchyntsi

Today, 11 April, Sunday

Time Temperature Precipitation Wind Pressure Humidity
00:00 +4°C° 0 mm 3 mps 743 mmHg 58%
01:00 +3°C° 0 mm 3 mps 743 mmHg 58%
02:00 +3°C° 0 mm 3 mps 743 mmHg 59%
03:00 +4°C° 0 mm 2 mps 743 mmHg 61%
04:00 +3°C° 0 mm 2 mps 743 mmHg 63%
05:00 +3°C° 0 mm 2 mps 743 mmHg 64%
06:00 +4°C° 0 mm 2 mps 743 mmHg 61%
07:00 +6°C° 0 mm 2 mps 744 mmHg 58%
08:00 +7°C° 0 mm 2 mps 744 mmHg 54%
09:00 +9°C° 0 mm 3 mps 744 mmHg 48%
10:00 +10°C° 0 mm 3 mps 744 mmHg 43%
11:00 +11°C° 0 mm 4 mps 744 mmHg 37%
12:00 +12°C° 0 mm 4 mps 744 mmHg 35%
13:00 +13°C° 0 mm 3 mps 744 mmHg 34%
14:00 +13°C° 0 mm 3 mps 743 mmHg 32%
15:00 +13°C° 0 mm 3 mps 743 mmHg 33%
16:00 +13°C° 0 mm 3 mps 743 mmHg 34%
17:00 +13°C° 0 mm 3 mps 743 mmHg 35%
18:00 +11°C° 0 mm 3 mps 743 mmHg 40%
19:00 +10°C° 0 mm 3 mps 743 mmHg 46%
20:00 +8°C° 0 mm 2 mps 743 mmHg 51%
21:00 +8°C° 0 mm 2 mps 743 mmHg 52%
22:00 +7°C° 0 mm 2 mps 743 mmHg 52%
23:00 +7°C° 0 mm 2 mps 743 mmHg 53%

Tomorrow, 12 April, Monday

Time Temperature Precipitation Wind Pressure Humidity
00:00 +6°C° 0 mm 2 mps 743 mmHg 55%
01:00 +6°C° 0 mm 2 mps 743 mmHg 58%
02:00 +5°C° 0 mm 2 mps 743 mmHg 60%
03:00 +5°C° 0 mm 2 mps 743 mmHg 61%
04:00 +5°C° 0 mm 2 mps 742 mmHg 62%
05:00 +4°C° 0 mm 2 mps 742 mmHg 63%
06:00 +6°C° 0 mm 2 mps 742 mmHg 59%
07:00 +7°C° 0 mm 2 mps 742 mmHg 56%
08:00 +9°C° 0 mm 2 mps 742 mmHg 52%
09:00 +10°C° 0 mm 2 mps 742 mmHg 48%
10:00 +13°C° 0 mm 2 mps 741 mmHg 44%
11:00 +14°C° 0 mm 2 mps 741 mmHg 39%
12:00 +15°C° 0 mm 2 mps 741 mmHg 38%
13:00 +16°C° 0 mm 2 mps 741 mmHg 37%
14:00 +16°C° 0 mm 2 mps 740 mmHg 36%
15:00 +16°C° 0 mm 2 mps 740 mmHg 37%
16:00 +16°C° 0 mm 2 mps 740 mmHg 38%
17:00 +16°C° 0 mm 2 mps 739 mmHg 39%
18:00 +15°C° 0 mm 2 mps 739 mmHg 46%
19:00 +13°C° 0 mm 2 mps 740 mmHg 52%
20:00 +10°C° 0 mm 3 mps 740 mmHg 59%
21:00 +9°C° 0 mm 2 mps 739 mmHg 64%
22:00 +9°C° 0 mm 2 mps 739 mmHg 69%
23:00 +9°C° 0 mm 1 mps 739 mmHg 75%

Day after tomorrow, 13 April, Tuesday

Time Temperature Precipitation Wind Pressure Humidity
00:00 +9°C° 0 mm 1 mps 739 mmHg 74%
01:00 +9°C° 0 mm 1 mps 739 mmHg 73%
02:00 +9°C° 0 mm 1 mps 738 mmHg 73%
03:00 +9°C° 0 mm 1 mps 738 mmHg 73%
04:00 +9°C° 0 mm 1 mps 738 mmHg 72%
05:00 +7°C° 0 mm 2 mps 738 mmHg 72%
06:00 +8°C° 0 mm 2 mps 738 mmHg 71%
07:00 +9°C° 0 mm 2 mps 738 mmHg 70%
08:00 +10°C° 0 mm 2 mps 738 mmHg 69%
09:00 +12°C° 0 mm 2 mps 738 mmHg 67%
10:00 +13°C° 0 mm 2 mps 738 mmHg 65%
11:00 +14°C° 0 mm 2 mps 738 mmHg 63%
12:00 +13°C° 0 mm 2 mps 737 mmHg 68%
13:00 +13°C° 0 mm 2 mps 737 mmHg 73%
14:00 +12°C° 0 mm 2 mps 737 mmHg 78%
15:00 +12°C° 0.1 mm 2 mps 737 mmHg 83%
16:00 +10°C° 0.1 mm 2 mps 736 mmHg 87%
17:00 +10°C° 0.1 mm 2 mps 736 mmHg 92%
18:00 +10°C° 0.3 mm 2 mps 736 mmHg 93%
19:00 +10°C° 0.3 mm 2 mps 736 mmHg 95%
20:00 +10°C° 0.3 mm 1 mps 736 mmHg 96%
21:00 +9°C° 0.2 mm 2 mps 736 mmHg 96%
22:00 +9°C° 0.2 mm 2 mps 736 mmHg 97%
23:00 +9°C° 0.2 mm 3 mps 735 mmHg 97%

14 April, Wednesday

Time Temperature Precipitation Wind Pressure Humidity
00:00 +9°C° 0.2 mm 3 mps 735 mmHg 96%
01:00 +9°C° 0.2 mm 3 mps 735 mmHg 95%
02:00 +7°C° 0.2 mm 4 mps 735 mmHg 94%
03:00 +7°C° 0.1 mm 4 mps 735 mmHg 94%
04:00 +7°C° 0.1 mm 4 mps 735 mmHg 94%
05:00 +6°C° 0.1 mm 4 mps 734 mmHg 93%
06:00 +6°C° 0.1 mm 4 mps 734 mmHg 93%
07:00 +6°C° 0.1 mm 4 mps 734 mmHg 93%
08:00 +6°C° 0.1 mm 4 mps 735 mmHg 93%
09:00 +7°C° 0 mm 5 mps 734 mmHg 88%
10:00 +8°C° 0 mm 5 mps 734 mmHg 84%
11:00 +8°C° 0 mm 5 mps 734 mmHg 79%
12:00 +8°C° 0 mm 5 mps 734 mmHg 79%
13:00 +8°C° 0 mm 5 mps 734 mmHg 79%
14:00 +8°C° 0 mm 5 mps 734 mmHg 79%
15:00 +7°C° 0 mm 4 mps 734 mmHg 82%
16:00 +8°C° 0 mm 3 mps 734 mmHg 84%
17:00 +8°C° 0 mm 3 mps 734 mmHg 86%
18:00 +8°C° 0 mm 2 mps 734 mmHg 87%
19:00 +8°C° 0 mm 2 mps 734 mmHg 88%
20:00 +8°C° 0 mm 1 mps 734 mmHg 89%
21:00 +7°C° 0 mm 2 mps 734 mmHg 89%
22:00 +7°C° 0 mm 2 mps 734 mmHg 90%
23:00 +7°C° 0 mm 2 mps 734 mmHg 90%

15 April, Thursday

Time Temperature Precipitation Wind Pressure Humidity
00:00 +7°C° 0.1 mm 2 mps 734 mmHg 90%
01:00 +7°C° 0.1 mm 2 mps 734 mmHg 91%
02:00 +7°C° 0.1 mm 2 mps 734 mmHg 92%
03:00 +6°C° 0.3 mm 2 mps 734 mmHg 93%
04:00 +6°C° 0.3 mm 2 mps 734 mmHg 94%
05:00 +6°C° 0.3 mm 2 mps 734 mmHg 95%
06:00 +6°C° 0.1 mm 2 mps 734 mmHg 95%
07:00 +7°C° 0.1 mm 2 mps 734 mmHg 95%
08:00 +7°C° 0.1 mm 2 mps 734 mmHg 95%
09:00 +7°C° 0 mm 2 mps 734 mmHg 93%
10:00 +8°C° 0 mm 2 mps 734 mmHg 91%
11:00 +8°C° 0 mm 2 mps 734 mmHg 89%
12:00 +9°C° 0.1 mm 2 mps 734 mmHg 87%
13:00 +9°C° 0.1 mm 2 mps 734 mmHg 86%
14:00 +9°C° 0.1 mm 2 mps 734 mmHg 85%
15:00 +9°C° 0.1 mm 2 mps 734 mmHg 87%
16:00 +9°C° 0.1 mm 3 mps 734 mmHg 89%
17:00 +9°C° 0.1 mm 3 mps 734 mmHg 90%
18:00 +8°C° 0.6 mm 3 mps 734 mmHg 92%
19:00 +8°C° 0.6 mm 3 mps 733 mmHg 93%
20:00 +7°C° 0.6 mm 4 mps 733 mmHg 94%
21:00 +7°C° 0.3 mm 4 mps 733 mmHg 92%
22:00 +7°C° 0.3 mm 5 mps 733 mmHg 91%
23:00 +7°C° 0.3 mm 5 mps 733 mmHg 89%

16 April, Friday

Time Temperature Precipitation Wind Pressure Humidity
00:00 +7°C° 0 mm 5 mps 732 mmHg 89%
01:00 +7°C° 0 mm 5 mps 732 mmHg 89%
02:00 +7°C° 0 mm 5 mps 732 mmHg 89%
03:00 +7°C° 0.1 mm 5 mps 732 mmHg 89%
04:00 +7°C° 0.1 mm 5 mps 732 mmHg 89%
05:00 +7°C° 0.1 mm 5 mps 731 mmHg 89%
06:00 +7°C° 0.3 mm 5 mps 732 mmHg 89%
07:00 +7°C° 0.3 mm 6 mps 732 mmHg 89%
08:00 +7°C° 0.3 mm 6 mps 732 mmHg 89%
09:00 +6°C° 0.2 mm 7 mps 732 mmHg 88%
10:00 +8°C° 0.2 mm 7 mps 732 mmHg 86%
11:00 +8°C° 0.2 mm 7 mps 732 mmHg 85%
12:00 +8°C° 0.9 mm 7 mps 732 mmHg 87%
13:00 +8°C° 0.9 mm 7 mps 732 mmHg 90%
14:00 +6°C° 0.9 mm 7 mps 732 mmHg 93%
15:00 +8°C° 0.3 mm 6 mps 733 mmHg 90%
16:00 +8°C° 0.3 mm 6 mps 733 mmHg 87%
17:00 +9°C° 0.3 mm 6 mps 733 mmHg 85%
18:00 +9°C° 0.3 mm 5 mps 734 mmHg 87%
19:00 +8°C° 0.3 mm 5 mps 734 mmHg 89%
20:00 +8°C° 0.3 mm 5 mps 734 mmHg 91%
21:00 +8°C° 0.2 mm 5 mps 735 mmHg 92%
22:00 +7°C° 0.2 mm 5 mps 735 mmHg 92%
23:00 +7°C° 0.2 mm 4 mps 736 mmHg 93%
Show more